Notices

What's New in latest Release from April 7th, 2021:

- Updated Glossary, including Speed of Maximum Gust, and Total Hourly Precipitation

- Updated national and regional climate services offices contacts and prices information

- Addition of station inventory lists for 1981-2010, 1971-2000, and 1961-1990 Normals.

If you haven't already, please take our survey and provide feedback about our website: https://eccc.sondage-survey.ca/f/LanguageSelection.aspx?s=442ca660-fcf1-47c0-95a9-59707d6fd709

Hourly Data Report for June 09, 2004

SHERBROOKE A
QUEBEC

45°26'00.000" N
71°41'00.000" W
241.40 m
7028124
71610
YSC

Download Data

Hourly Data (June 2004)
Hourly Data Report for June 9, 2004
TIME
LST
Temp Definition
°C
Dew Point Definition
°C
Rel Hum Definition
%
Precip. Amount Definition
mm

Wind Dir Definition
10's deg

Wind Spd Definition
km/h
Visibility Definition
km
Stn Press Definition
kPa
Hmdx Definition


Wind Chill Definition


Weather Definition


00:00 21.8 14.1 62   24 13 11.3 98.33 25    
01:00 23.0 15.0 61   24 15 11.3 98.28 27    
02:00 22.3 15.3 65   22 9 11.3 98.25 26    
03:00 21.4 15.8 70   22 11 9.7 98.21 26    
04:00 22.1 16.7 71   27 13 9.7 98.24 27    
05:00 22.4 17.5 74   27 15 9.7 98.27 28    
06:00 23.6 18.2 72   26 20 9.7 98.26 30    
07:00 24.8 19.3 72   26 20 12.9 98.25 32   Clear
08:00 25.7 19.6 69   25 19 16.1 98.25 33   Mainly Clear
09:00 24.6 19.5 73   25 17 19.3 98.25 32   Cloudy
10:00 24.5 19.4 73   26 20 16.1 98.25 32   Mostly Cloudy
11:00 25.7 19.9 70   26 19 19.3 98.20 33   Mostly Cloudy
12:00 26.5 19.7 66   27 22 19.3 98.16 34   Mostly Cloudy
13:00 26.0 19.1 66   27 19 19.3 98.09 33   Mostly Cloudy
14:00 25.2 18.2 65   32 19 19.3 98.04 31   Mostly Cloudy
15:00 25.3 15.4 54   32 20 24.1 97.97 30   Mostly Cloudy
16:00 26.2 16.6 56   30 11 19.3 97.97 31   Mostly Cloudy
17:00 25.0 15.3 55   31 15 15.0 97.99 29    
18:00 23.0 12.6 52   32 13 15.0 98.06 26    
19:00 20.9 9.8 49   34 11 15.0 98.09      
20:00 19.0 7.0 46   34 9 15.0 98.16     Rain
21:00 17.7 5.1 43   32 6 15.0 98.28      
22:00 16.4 4.8 46   34 13 15.0 98.35      
23:00 15.4 4.5 48   34 7 15.0 98.37      

Notes on Data Quality.

Legend

  • E = Estimated
  • M = Missing
  • NA = Not Available*
  • [empty] = Indicates an unobserved value
Date modified: